星链-4548 (STARLINK-4548 )

导读

STARLINK-4548是美国太空探索技术公司Starlink卫星互联网项目的组网卫星,于2022年8月10日发射升空,属星链低轨星座的组成部分,主要服务于全球范围的卫星互联网接入。这类低轨卫星可减少信号传输延迟,为偏远地区等提供宽带网络服务,也在美国军事通信等领域承担相关支撑作用。

Basic Information
目录编号:
53431
目录名称:
STARLINK-4548
国际标识:
2022-097AV
轨道中心:
EARTH
卫星名称:
星链-4548
卫星全名:
星链-4548 (STARLINK-4548 )
卫星状态:
在轨 (已飞行1486 天)
发射日期:
2022-08-10 UTC
国别 :
美国 (US)
星等 :
--
Orbit Information
数据来源 国际轨道数据
星历时间: 2026-09-04T02:59:27+0800
9小时前
查看轨道信息
半长轴: 6837.874km
偏心率: 0.0001122
轨道倾角: 53.161°
近地点辐角 87.421°
升交点赤经 11.935°
平近点角 272.693°
近地点: 458.969km
远地点: 460.505km
周期: 93.787分钟
每日圈数: 15.353988
Detailed Information
固有亮度:
5
最大亮度:
2.5
卫星平台:
Starlink v1.5
覆盖范围:
全球
运营商:
太空探索技术公司
运营商所在国:
美国
制造商(研发单位):
太空探索技术公司
制造商所在国:
美国
使用方式:
暂无
Satellite Introduction
星链(Starlink)计划是由太空探索技术公司(SpaceX)提出的一个巨型低轨卫星互联网星座项目,计划在2019年至2024年间在太空搭建由约1.2万颗卫星组成的“星链”网络,其中1584颗将部署在地球上空550千米处的近地轨道,并从2020年开始工作。该卫星仍在工作。
2D Orbit Map
3D Orbit Map
Orbit Altitude Analysis Chart
Orbit Inclination Analysis Chart
Orbit Comprehensive Analysis Chart
View Comprehensive Chart
Conjunction Data List
Event ID Objects TCA Miss Dist (km) Collision Risk Probability Collision Risk Index (CRI) Action
CDM_260904-175105-343106-489221
OBJECT S (64892)
2026-09-04T
17:51:48+0000
0.674 km
远距离
9.340682E-5 中风险 0.74
CDM_260904-194605-343105-827622
GENMAT-1 (58276)
2026-09-04T
19:46:06+0000
1.359 km
极远距离
5.852016E-6 低风险 0.5
CDM_260903-221405-343106-926621
2026-09-03T
22:14:56+0000
2.831 km
极远距离
1.248187E-6 低风险 0.37
CDM_260828-104805-343106-925621
2026-08-28T
10:48:22+0000
2.977 km
极远距离
1.170904E-6 低风险 0.36
CDM_260904-163505-343105-882621
2026-09-04T
16:35:38+0000
2.739 km
极远距离
1.073455E-6 低风险 0.36
CDM_260904-141405-343106-785821
2026-09-04T
14:14:36+0000
2.897 km
极远距离
9.776453E-7 极低风险 0.35
CDM_260905-035905-343106-403721
2026-09-05T
03:59:21+0000
2.690 km
极远距离
6.318368E-7 极低风险 0.31
CDM_260904-202105-343106-602621
2026-09-04T
20:21:09+0000
2.806 km
极远距离
4.943835E-7 极低风险 0.29